This demonstration page uses our WeatherBlox Daily Observations layout. Learn more.

Left ArrowRight Arrow

39.08367, -84.50855

Hourly Observations for March 30, 2018

Temp ( °F °C ) Dew Point ( °F °C ) Humidity (%) Winds ( mph kmh ) Pressure ( in mb ) Visibility ( mi km ) Precip ( " mm )
12:48 am 00:48 Cloudy with Light Rain 45 7 43 6 93 93 NNW 10 17 29.94 1014 8 12.87472 0 0.0254
12:53 am 00:53 Cloudy with Rain 45 7.2 43 6.1 93 93 N 10 17 29.9 1012 5 8.0467 0.02 0.508
1:53 am 01:53 Cloudy with Light Rain 44 6.7 42 5.6 93 93 N 10 17 29.91 1013 9 14.48406 0.09 2.286
2:37 am 02:37 Cloudy with Light Rain 44 6.7 41 5 89 89 N 14 22 29.94 1014 7 11.26538 0.02 0.508
2:53 am 02:53 Cloudy with Light Rain 43 6.1 40 4.4 89 89 N 13 20 29.92 1013 9 14.48406 0.03 0.762
3:53 am 03:53 Cloudy 43 6.1 41 5 93 93 N 10 17 29.92 1013 10 16.0934 0 0.0254
4:10 am 04:10 Cloudy 43 6.1 41 5 93 93 N 10 17 29.94 1014 10 16.0934 0 0
4:53 am 04:53 Cloudy with Light Rain 43 6.1 40 4.4 89 89 N 10 17 29.96 1014 10 16.0934 0 0.0254
5:06 am 05:06 Cloudy with Light Rain 43 6.1 40 4.4 89 89 N 9 15 29.97 1015 10 16.0934 0 0.0254
5:51 am 05:51 Cloudy 43 6 41 5 93 93 N 7 11 29.97 1015 10 16.0934 0.01 0.254
5:53 am 05:53 Cloudy with Light Rain 43 6.1 41 5 93 93 N 8 13 29.98 1015 10 16.0934 0.01 0.254
6:53 am 06:53 Cloudy with Light Rain 44 6.7 42 5.6 93 93 NNW 8 13 30.02 1017 9 14.48406 0 0.0254
7:53 am 07:53 Cloudy with Light Rain 43 6.1 42 5.6 97 97 WNW 7 11 30.06 1018 5 8.0467 0.01 0.254
8:53 am 08:53 Cloudy with Light Rain 44 6.7 42 5.6 93 93 NNW 7 11 30.09 1019 6 9.65604 0.01 0.254
9:53 am 09:53 Cloudy with Rain 44 6.7 42 5.6 93 93 NW 6 9 30.13 1020 4 6.43736 0.04 1.016
10:35 am 10:35 Cloudy with Light Rain 45 7.2 43 6.1 93 93 WNW 9 15 30.15 1021 5 8.0467 0.04 1.016
10:53 am 10:53 Cloudy with Light Rain 45 7.2 42 5.6 90 90 NW 8 13 30.16 1021 8 12.87472 0.05 1.27
11:53 am 11:53 Cloudy with Light Rain 45 7.2 42 5.6 90 90 NW 5 7 30.18 1022 10 16.0934 0.01 0.254
12:01 pm 12:01 Cloudy with Light Rain 46 7.8 43 6.1 89 89 W 5 7 30.18 1022 10 16.0934 0 0.0254
12:11 pm 12:11 Cloudy 46 7.8 42 5.6 86 86 W 5 7 30.18 1022 10 16.0934 0 0.0254
12:38 pm 12:38 Cloudy 48 8.9 42 5.6 80 80 N 5 7 30.18 1022 10 16.0934 0 0.0254
12:53 pm 12:53 Cloudy 48 8.9 41 5 77 77 NNE 5 7 30.18 1022 8 12.87472 0 0.0254
1:53 pm 13:53 Cloudy 48 8.9 43 6.1 83 83 N 12 19 30.19 1022 10 16.0934 0 0
2:37 pm 14:37 Cloudy 48 8.9 42 5.6 80 80 NNW 10 17 30.18 1022 10 16.0934 0 0
2:53 pm 14:53 Cloudy 49 9.4 43 6.1 80 80 NNW 13 20 30.19 1022 10 16.0934 0 0
3:04 pm 15:04 Cloudy 48 8.9 43 6.1 83 83 NNW 8 13 30.18 1022 10 16.0934 0 0
3:21 pm 15:21 Cloudy 46 7.8 42 5.6 86 86 N 12 19 30.21 1023 9 14.48406 0 0
3:29 pm 15:29 Cloudy 47 8.3 42 5.6 83 83 NW 12 19 30.21 1023 9 14.48406 0 0
3:51 pm 15:51 Cloudy 48 9 43 6 82 82 WNW 10 17 30.21 1023 10 16.0934 0 0
3:53 pm 15:53 Cloudy 48 8.9 43 6.1 83 83 W 16 26 30.21 1023 10 16.0934 0 0
4:53 pm 16:53 Cloudy 47 8.3 40 4.4 77 77 NW 8 13 30.21 1023 10 16.0934 0 0
5:53 pm 17:53 Cloudy 47 8.3 40 4.4 77 77 W 9 15 30.22 1023 10 16.0934 0 0
6:53 pm 18:53 Mostly Cloudy 46 7.8 41 5 83 83 SW 7 11 30.23 1024 10 16.0934 0 0
7:53 pm 19:53 Mostly Sunny 43 6.1 39 3.9 86 86 SW 6 9 30.24 1024 10 16.0934 0 0
8:53 pm 20:53 Clear 38 3.3 37 2.8 97 97 SSW 5 7 30.25 1024 10 16.0934 0 0
9:53 pm 21:53 Clear 41 5 39 3.9 93 93 SSW 3 6 30.27 1025 10 16.0934 0 0
10:30 pm 22:30 Clear 37 2.8 37 2.8 100 100 Calm 30.27 1025 10 16.0934 0 0
10:37 pm 22:37 Clear 38 3.3 37 2.8 97 97 Calm 30.27 1025 10 16.0934 0 0
10:53 pm 22:53 Clear with Mist and Fog 38 3.3 37 2.8 97 97 Calm 30.29 1026 10 16.0934 0 0
11:12 pm 23:12 Mostly Clear 37 2.8 37 2.8 100 100 Calm 30.27 1025 10 16.0934 0 0
11:53 pm 23:53 Clear 36 2.2 36 2.2 100 100 Calm 30.29 1026 10 16.0934 0 0
11:56 pm 23:56 Clear with Mist and Fog 36 2.2 36 2.2 100 100 Calm 30.33 1027 0.75 1.207005 0 0

Powered by AerisWeather